Time,TemperatureF,DewpointF,PressureIn,WindDirection,WindDirectionDegrees,WindSpeedMPH,WindSpeedGustMPH,Humidity,HourlyPrecipIn,Conditions,Clouds,dailyrainin,SoftwareType,DateUTC
2013-04-23 00:01:00,48.1,43.8,30.38,NE,34,2.0,6.0,85,0.00,,,0.00,Wunderground v.1.15,2013-04-23 04:01:00,
2013-04-23 00:02:00,48.1,43.8,30.38,ENE,67,2.0,6.0,85,0.00,,,0.00,Wunderground v.1.15,2013-04-23 04:02:00,
2013-04-23 00:03:00,48.1,43.8,30.38,NE,42,4.0,6.0,85,0.00,,,0.00,Wunderground v.1.15,2013-04-23 04:03:00,
2013-04-23 00:08:00,48.1,43.8,30.38,NNE,30,4.0,9.0,85,0.00,,,0.00,Wunderground v.1.15,2013-04-23 04:08:00,
2013-04-23 00:13:00,48.1,43.8,30.38,NE,36,4.0,6.0,85,0.00,,,0.00,Wunderground v.1.15,2013-04-23 04:13:00,
2013-04-23 00:15:00,48.1,43.8,30.37,NNE,25,4.0,6.0,85,0.00,,,0.00,Wunderground v.1.15,2013-04-23 04:15:00,
2013-04-23 00:20:00,48.1,44.1,30.37,NE,35,3.0,4.0,86,0.00,,,0.00,Wunderground v.1.15,2013-04-23 04:20:00,
2013-04-23 00:26:00,48.0,44.0,30.37,NE,41,0.0,5.0,86,0.00,,,0.00,Wunderground v.1.15,2013-04-23 04:26:00,
2013-04-23 00:31:00,48.0,44.0,30.37,NE,53,2.0,3.0,86,0.00,,,0.00,Wunderground v.1.15,2013-04-23 04:31:00,
2013-04-23 00:37:00,48.0,44.0,30.37,NE,34,5.0,5.0,86,0.00,,,0.00,Wunderground v.1.15,2013-04-23 04:37:00,
2013-04-23 00:43:00,48.0,44.0,30.36,NE,53,3.0,6.0,86,0.00,,,0.00,Wunderground v.1.15,2013-04-23 04:43:00,
2013-04-23 00:48:00,47.9,43.9,30.36,ENE,64,3.0,6.0,86,0.00,,,0.00,Wunderground v.1.15,2013-04-23 04:48:00,
2013-04-23 00:54:00,47.9,43.9,30.36,ENE,71,6.0,6.0,86,0.00,,,0.00,Wunderground v.1.15,2013-04-23 04:54:00,
2013-04-23 00:59:00,47.9,44.2,30.35,NNE,25,4.0,6.0,87,0.00,,,0.00,Wunderground v.1.15,2013-04-23 04:59:00,
2013-04-23 01:04:00,47.9,44.2,30.35,NE,44,4.0,4.0,87,0.00,,,0.00,Wunderground v.1.15,2013-04-23 05:04:00,
2013-04-23 01:09:00,47.9,44.2,30.35,NE,48,2.0,5.0,87,0.00,,,0.00,Wunderground v.1.15,2013-04-23 05:09:00,
2013-04-23 01:15:00,47.9,44.2,30.35,NNE,31,5.0,5.0,87,0.00,,,0.00,Wunderground v.1.15,2013-04-23 05:15:00,
2013-04-23 01:21:00,47.8,44.1,30.34,NE,36,5.0,5.0,87,0.00,,,0.00,Wunderground v.1.15,2013-04-23 05:21:00,
2013-04-23 01:26:00,47.8,44.4,30.34,ENE,59,2.0,6.0,88,0.00,,,0.00,Wunderground v.1.15,2013-04-23 05:26:00,
2013-04-23 01:32:00,47.8,44.4,30.35,ENE,62,4.0,6.0,88,0.00,,,0.00,Wunderground v.1.15,2013-04-23 05:32:00,
2013-04-23 01:37:00,47.9,44.5,30.34,NNE,17,6.0,6.0,88,0.00,,,0.00,Wunderground v.1.15,2013-04-23 05:37:00,
2013-04-23 01:43:00,47.9,44.8,30.34,NE,42,4.0,5.0,89,0.00,,,0.00,Wunderground v.1.15,2013-04-23 05:43:00,
2013-04-23 01:49:00,47.9,44.8,30.34,NE,35,3.0,5.0,89,0.00,,,0.00,Wunderground v.1.15,2013-04-23 05:49:00,
2013-04-23 01:54:00,47.8,44.7,30.34,NE,38,5.0,7.0,89,0.00,,,0.00,Wunderground v.1.15,2013-04-23 05:54:00,
2013-04-23 02:00:00,47.8,44.7,30.34,NE,39,4.0,4.0,89,0.00,,,0.00,Wunderground v.1.15,2013-04-23 06:00:00,
2013-04-23 02:05:00,47.8,44.7,30.34,NE,34,4.0,7.0,89,0.00,,,0.00,Wunderground v.1.15,2013-04-23 06:05:00,
2013-04-23 02:10:00,47.8,45.0,30.34,NNE,26,4.0,5.0,90,0.00,,,0.00,Wunderground v.1.15,2013-04-23 06:10:00,
2013-04-23 02:15:00,47.8,45.0,30.33,NNE,30,5.0,7.0,90,0.00,,,0.00,Wunderground v.1.15,2013-04-23 06:15:00,
2013-04-23 02:20:00,47.8,45.0,30.33,ENE,57,2.0,4.0,90,0.00,,,0.00,Wunderground v.1.15,2013-04-23 06:20:00,
2013-04-23 02:25:00,47.8,45.0,30.33,NE,36,1.0,10.0,90,0.00,,,0.00,Wunderground v.1.15,2013-04-23 06:25:00,
2013-04-23 02:30:00,47.8,45.0,30.33,ENE,62,4.0,8.0,90,0.00,,,0.00,Wunderground v.1.15,2013-04-23 06:30:00,
2013-04-23 02:35:00,47.7,44.9,30.32,NE,47,4.0,8.0,90,0.00,,,0.00,Wunderground v.1.15,2013-04-23 06:35:00,
2013-04-23 02:40:00,47.7,45.2,30.32,NE,52,2.0,4.0,91,0.00,,,0.00,Wunderground v.1.15,2013-04-23 06:40:00,
2013-04-23 02:45:00,47.8,45.3,30.32,ENE,60,6.0,6.0,91,0.00,,,0.00,Wunderground v.1.15,2013-04-23 06:45:00,
2013-04-23 02:50:00,47.8,45.3,30.32,NNE,26,5.0,7.0,91,0.00,,,0.00,Wunderground v.1.15,2013-04-23 06:50:00,
2013-04-23 02:55:00,47.7,45.2,30.32,NNE,17,7.0,11.0,91,0.00,,,0.00,Wunderground v.1.15,2013-04-23 06:55:00,
2013-04-23 03:00:00,47.7,45.2,30.32,NE,34,0.0,5.0,91,0.00,,,0.00,Wunderground v.1.15,2013-04-23 07:00:00,
2013-04-23 03:05:00,47.7,45.2,30.31,NNE,25,5.0,9.0,91,0.00,,,0.00,Wunderground v.1.15,2013-04-23 07:05:00,
2013-04-23 03:10:00,47.7,45.5,30.31,NE,49,2.0,5.0,92,0.00,,,0.00,Wunderground v.1.15,2013-04-23 07:10:00,
2013-04-23 03:15:00,47.7,45.5,30.31,ENE,76,5.0,9.0,92,0.00,,,0.00,Wunderground v.1.15,2013-04-23 07:15:00,
2013-04-23 03:20:00,47.7,45.5,30.31,NNE,24,9.0,9.0,92,0.00,,,0.00,Wunderground v.1.15,2013-04-23 07:20:00,
2013-04-23 03:25:00,47.7,45.5,30.31,NE,48,2.0,9.0,92,0.00,,,0.00,Wunderground v.1.15,2013-04-23 07:25:00,
2013-04-23 03:30:00,47.7,45.5,30.31,ENE,66,5.0,5.0,92,0.00,,,0.00,Wunderground v.1.15,2013-04-23 07:30:00,
2013-04-23 03:35:00,47.6,45.4,30.31,NNE,33,2.0,9.0,92,0.00,,,0.00,Wunderground v.1.15,2013-04-23 07:35:00,
2013-04-23 03:40:00,47.7,45.5,30.31,NE,44,4.0,4.0,92,0.00,,,0.00,Wunderground v.1.15,2013-04-23 07:40:00,
2013-04-23 03:45:00,47.7,45.5,30.31,ENE,61,3.0,5.0,92,0.00,,,0.00,Wunderground v.1.15,2013-04-23 07:45:00,
2013-04-23 03:50:00,47.6,45.4,30.30,ENE,59,8.0,8.0,92,0.00,,,0.00,Wunderground v.1.15,2013-04-23 07:50:00,
2013-04-23 03:55:00,47.6,45.4,30.30,NE,40,3.0,8.0,92,0.00,,,0.00,Wunderground v.1.15,2013-04-23 07:55:00,
2013-04-23 04:00:00,47.6,45.4,30.30,NE,34,4.0,4.0,92,0.00,,,0.00,Wunderground v.1.15,2013-04-23 08:00:00,
2013-04-23 04:05:00,47.5,45.3,30.30,NE,46,4.0,10.0,92,0.00,,,0.00,Wunderground v.1.15,2013-04-23 08:05:00,
2013-04-23 04:10:00,47.5,45.6,30.30,NE,50,2.0,3.0,93,0.00,,,0.00,Wunderground v.1.15,2013-04-23 08:10:00,
2013-04-23 04:15:00,47.4,45.5,30.30,ENE,65,7.0,10.0,93,0.00,,,0.00,Wunderground v.1.15,2013-04-23 08:15:00,
2013-04-23 04:21:00,47.4,45.5,30.30,NE,34,3.0,7.0,93,0.00,,,0.00,Wunderground v.1.15,2013-04-23 08:21:00,
2013-04-23 04:26:00,47.3,45.4,30.29,ENE,75,6.0,12.0,93,0.00,,,0.00,Wunderground v.1.15,2013-04-23 08:26:00,
2013-04-23 04:31:00,47.3,45.4,30.29,NNE,28,4.0,6.0,93,0.00,,,0.00,Wunderground v.1.15,2013-04-23 08:31:00,
2013-04-23 04:36:00,47.3,45.4,30.29,NE,38,6.0,6.0,93,0.00,,,0.00,Wunderground v.1.15,2013-04-23 08:36:00,
2013-04-23 04:41:00,47.3,45.4,30.29,ENE,71,6.0,6.0,93,0.00,,,0.00,Wunderground v.1.15,2013-04-23 08:41:00,
2013-04-23 04:46:00,47.2,45.0,30.29,NNE,32,3.0,10.0,92,0.00,,,0.00,Wunderground v.1.15,2013-04-23 08:46:00,
2013-04-23 04:51:00,47.2,45.0,30.29,NNE,25,9.0,9.0,92,0.00,,,0.00,Wunderground v.1.15,2013-04-23 08:51:00,
2013-04-23 04:56:00,47.2,45.0,30.29,ENE,61,1.0,10.0,92,0.00,,,0.00,Wunderground v.1.15,2013-04-23 08:56:00,
2013-04-23 05:01:00,47.1,44.9,30.29,NNE,24,5.0,10.0,92,0.00,,,0.00,Wunderground v.1.15,2013-04-23 09:01:00,
2013-04-23 05:06:00,47.0,44.8,30.28,NE,55,4.0,11.0,92,0.00,,,0.00,Wunderground v.1.15,2013-04-23 09:06:00,
2013-04-23 05:11:00,47.1,44.9,30.28,ENE,59,4.0,7.0,92,0.00,,,0.00,Wunderground v.1.15,2013-04-23 09:11:00,
2013-04-23 05:16:00,47.1,44.9,30.28,NE,48,3.0,11.0,92,0.00,,,0.00,Wunderground v.1.15,2013-04-23 09:16:00,
2013-04-23 05:21:00,47.1,44.9,30.28,NNE,32,4.0,4.0,92,0.00,,,0.00,Wunderground v.1.15,2013-04-23 09:21:00,
2013-04-23 05:26:00,47.1,44.9,30.28,NE,52,4.0,11.0,92,0.00,,,0.00,Wunderground v.1.15,2013-04-23 09:26:00,
2013-04-23 05:31:00,47.0,44.8,30.28,NE,34,5.0,9.0,92,0.00,,,0.00,Wunderground v.1.15,2013-04-23 09:31:00,
2013-04-23 05:36:00,47.0,44.8,30.28,NNE,21,7.0,10.0,92,0.00,,,0.00,Wunderground v.1.15,2013-04-23 09:36:00,
2013-04-23 05:41:00,46.9,44.4,30.28,NE,36,0.0,5.0,91,0.00,,,0.00,Wunderground v.1.15,2013-04-23 09:41:00,
2013-04-23 05:46:00,46.9,44.4,30.28,NE,51,5.0,8.0,91,0.00,,,0.00,Wunderground v.1.15,2013-04-23 09:46:00,
2013-04-23 05:51:00,46.9,44.4,30.28,NE,38,6.0,7.0,91,0.00,,,0.00,Wunderground v.1.15,2013-04-23 09:51:00,
2013-04-23 05:56:00,46.8,44.0,30.28,ENE,57,4.0,7.0,90,0.00,,,0.00,Wunderground v.1.15,2013-04-23 09:56:00,
2013-04-23 06:01:00,46.9,44.1,30.28,NE,55,0.0,5.0,90,0.00,,,0.00,Wunderground v.1.15,2013-04-23 10:01:00,
2013-04-23 06:06:00,46.9,44.1,30.28,NNE,21,3.0,9.0,90,0.00,,,0.00,Wunderground v.1.15,2013-04-23 10:06:00,
2013-04-23 06:11:00,47.0,44.5,30.28,ENE,59,3.0,8.0,91,0.00,,,0.00,Wunderground v.1.15,2013-04-23 10:11:00,
2013-04-23 06:16:00,46.9,44.1,30.28,NE,36,4.0,10.0,90,0.00,,,0.00,Wunderground v.1.15,2013-04-23 10:16:00,
2013-04-23 06:21:00,46.8,44.0,30.28,ENE,75,5.0,7.0,90,0.00,,,0.00,Wunderground v.1.15,2013-04-23 10:21:00,
2013-04-23 06:26:00,46.8,44.0,30.28,East,82,2.0,10.0,90,0.00,,,0.00,Wunderground v.1.15,2013-04-23 10:26:00,
2013-04-23 06:31:00,46.8,44.0,30.28,NNE,24,5.0,6.0,90,0.00,,,0.00,Wunderground v.1.15,2013-04-23 10:31:00,
2013-04-23 06:36:00,46.8,44.0,30.28,NE,39,1.0,10.0,90,0.00,,,0.00,Wunderground v.1.15,2013-04-23 10:36:00,
2013-04-23 06:41:00,46.8,44.0,30.28,ENE,57,5.0,6.0,90,0.00,,,0.00,Wunderground v.1.15,2013-04-23 10:41:00,
2013-04-23 06:46:00,46.8,44.0,30.29,East,82,3.0,8.0,90,0.00,,,0.00,Wunderground v.1.15,2013-04-23 10:46:00,
2013-04-23 06:51:00,46.7,43.9,30.29,NE,37,1.0,6.0,90,0.00,,,0.00,Wunderground v.1.15,2013-04-23 10:51:00,
2013-04-23 06:56:00,46.7,43.9,30.29,NE,44,1.0,8.0,90,0.00,,,0.00,Wunderground v.1.15,2013-04-23 10:56:00,
2013-04-23 07:01:00,46.7,43.9,30.29,NE,55,2.0,5.0,90,0.00,,,0.00,Wunderground v.1.15,2013-04-23 11:01:00,
2013-04-23 07:07:00,46.7,43.9,30.29,NE,48,2.0,9.0,90,0.00,,,0.00,Wunderground v.1.15,2013-04-23 11:07:00,
2013-04-23 07:12:00,46.6,43.5,30.29,NNE,18,4.0,7.0,89,0.00,,,0.00,Wunderground v.1.15,2013-04-23 11:12:00,
2013-04-23 07:17:00,46.5,43.4,30.29,NE,49,2.0,11.0,89,0.00,,,0.00,Wunderground v.1.15,2013-04-23 11:17:00,
2013-04-23 07:22:00,46.5,43.4,30.29,ENE,60,4.0,6.0,89,0.00,,,0.00,Wunderground v.1.15,2013-04-23 11:22:00,
2013-04-23 07:27:00,46.5,43.4,30.29,North,9,2.0,10.0,89,0.00,,,0.00,Wunderground v.1.15,2013-04-23 11:27:00,
2013-04-23 07:32:00,46.5,43.4,30.29,NNE,29,5.0,9.0,89,0.00,,,0.00,Wunderground v.1.15,2013-04-23 11:32:00,
2013-04-23 07:38:00,46.5,43.4,30.29,NE,49,3.0,11.0,89,0.00,,,0.00,Wunderground v.1.15,2013-04-23 11:38:00,
2013-04-23 07:43:00,46.6,43.5,30.29,NE,52,4.0,6.0,89,0.00,,,0.00,Wunderground v.1.15,2013-04-23 11:43:00,
2013-04-23 07:48:00,46.7,43.6,30.29,NE,37,3.0,7.0,89,0.00,,,0.00,Wunderground v.1.15,2013-04-23 11:48:00,
2013-04-23 07:53:00,46.8,43.7,30.29,NE,42,7.0,8.0,89,0.00,,,0.00,Wunderground v.1.15,2013-04-23 11:53:00,
2013-04-23 07:58:00,46.8,43.4,30.29,NE,45,4.0,8.0,88,0.00,,,0.00,Wunderground v.1.15,2013-04-23 11:58:00,
2013-04-23 08:03:00,46.8,43.4,30.29,NE,34,2.0,10.0,88,0.00,,,0.00,Wunderground v.1.15,2013-04-23 12:03:00,
2013-04-23 08:08:00,46.9,43.5,30.29,NNE,30,5.0,10.0,88,0.00,,,0.00,Wunderground v.1.15,2013-04-23 12:08:00,
2013-04-23 08:13:00,47.0,43.6,30.29,NE,44,4.0,11.0,88,0.00,,,0.00,Wunderground v.1.15,2013-04-23 12:13:00,
2013-04-23 08:18:00,47.1,43.7,30.28,NE,46,4.0,11.0,88,0.00,,,0.00,Wunderground v.1.15,2013-04-23 12:18:00,
2013-04-23 08:23:00,47.0,43.3,30.28,NE,38,6.0,9.0,87,0.00,,,0.00,Wunderground v.1.15,2013-04-23 12:23:00,
2013-04-23 08:28:00,46.9,42.9,30.28,NE,53,5.0,10.0,86,0.00,,,0.00,Wunderground v.1.15,2013-04-23 12:28:00,
2013-04-23 08:33:00,47.0,43.0,30.28,NNE,30,4.0,13.0,86,0.00,,,0.00,Wunderground v.1.15,2013-04-23 12:33:00,
2013-04-23 08:38:00,47.1,43.1,30.28,NNE,31,3.0,13.0,86,0.00,,,0.00,Wunderground v.1.15,2013-04-23 12:38:00,
2013-04-23 08:43:00,47.3,43.3,30.28,North,351,6.0,7.0,86,0.00,,,0.00,Wunderground v.1.15,2013-04-23 12:43:00,
2013-04-23 08:48:00,47.5,43.5,30.28,NE,34,2.0,12.0,86,0.00,,,0.00,Wunderground v.1.15,2013-04-23 12:48:00,
2013-04-23 08:53:00,47.7,43.7,30.28,NNE,17,4.0,7.0,86,0.00,,,0.00,Wunderground v.1.15,2013-04-23 12:53:00,
2013-04-23 08:58:00,47.8,43.5,30.28,NE,53,2.0,11.0,85,0.00,,,0.00,Wunderground v.1.15,2013-04-23 12:58:00,
2013-04-23 09:03:00,47.9,43.6,30.28,ENE,66,3.0,9.0,85,0.00,,,0.00,Wunderground v.1.15,2013-04-23 13:03:00,
2013-04-23 09:08:00,48.2,43.9,30.28,NE,36,2.0,11.0,85,0.00,,,0.00,Wunderground v.1.15,2013-04-23 13:08:00,
2013-04-23 09:13:00,48.4,44.1,30.28,NE,42,6.0,11.0,85,0.00,,,0.00,Wunderground v.1.15,2013-04-23 13:13:00,
2013-04-23 09:18:00,48.5,43.9,30.28,ENE,64,4.0,11.0,84,0.00,,,0.00,Wunderground v.1.15,2013-04-23 13:18:00,
2013-04-23 09:23:00,48.6,44.0,30.28,NNE,29,5.0,9.0,84,0.00,,,0.00,Wunderground v.1.15,2013-04-23 13:23:00,
2013-04-23 09:28:00,48.7,44.1,30.28,East,101,2.0,9.0,84,0.00,,,0.00,Wunderground v.1.15,2013-04-23 13:28:00,
2013-04-23 09:33:00,48.9,44.3,30.28,NE,38,5.0,7.0,84,0.00,,,0.00,Wunderground v.1.15,2013-04-23 13:33:00,
2013-04-23 09:38:00,49.0,44.4,30.28,NE,46,3.0,10.0,84,0.00,,,0.00,Wunderground v.1.15,2013-04-23 13:38:00,
2013-04-23 09:43:00,49.1,44.2,30.28,NE,42,4.0,10.0,83,0.00,,,0.00,Wunderground v.1.15,2013-04-23 13:43:00,
2013-04-23 09:49:00,49.2,44.6,30.28,NE,44,4.0,10.0,84,0.00,,,0.00,Wunderground v.1.15,2013-04-23 13:49:00,
2013-04-23 09:54:00,49.4,44.8,30.28,NNE,19,2.0,5.0,84,0.00,,,0.00,Wunderground v.1.15,2013-04-23 13:54:00,
2013-04-23 09:59:00,49.6,45.0,30.27,NE,42,4.0,7.0,84,0.00,,,0.00,Wunderground v.1.15,2013-04-23 13:59:00,
2013-04-23 10:04:00,49.7,44.7,30.27,NE,44,3.0,7.0,83,0.00,,,0.00,Wunderground v.1.15,2013-04-23 14:04:00,
2013-04-23 10:09:00,49.9,44.9,30.27,NE,42,3.0,7.0,83,0.00,,,0.00,Wunderground v.1.15,2013-04-23 14:09:00,
2013-04-23 10:14:00,50.0,44.7,30.27,NNE,24,4.0,8.0,82,0.00,,,0.00,Wunderground v.1.15,2013-04-23 14:14:00,
2013-04-23 10:19:00,50.1,45.1,30.27,NE,55,2.0,11.0,83,0.00,,,0.00,Wunderground v.1.15,2013-04-23 14:19:00,
2013-04-23 10:24:00,50.3,45.0,30.27,NNE,24,6.0,13.0,82,0.00,,,0.00,Wunderground v.1.15,2013-04-23 14:24:00,
2013-04-23 10:29:00,50.2,44.6,30.27,NNW,341,4.0,13.0,81,0.00,,,0.00,Wunderground v.1.15,2013-04-23 14:29:00,
2013-04-23 10:34:00,50.0,44.4,30.27,NE,51,5.0,10.0,81,0.00,,,0.00,Wunderground v.1.15,2013-04-23 14:34:00,
2013-04-23 10:39:00,50.0,44.7,30.27,NE,34,2.0,10.0,82,0.00,,,0.00,Wunderground v.1.15,2013-04-23 14:39:00,
2013-04-23 10:44:00,50.1,44.8,30.27,ENE,66,4.0,10.0,82,0.00,,,0.00,Wunderground v.1.15,2013-04-23 14:44:00,
2013-04-23 10:49:00,50.3,45.3,30.26,NNE,25,4.0,10.0,83,0.00,,,0.00,Wunderground v.1.15,2013-04-23 14:49:00,
2013-04-23 10:54:00,50.4,45.1,30.26,ENE,65,5.0,7.0,82,0.00,,,0.00,Wunderground v.1.15,2013-04-23 14:54:00,
2013-04-23 10:59:00,50.4,45.1,30.26,NNE,22,7.0,12.0,82,0.00,,,0.00,Wunderground v.1.15,2013-04-23 14:59:00,
2013-04-23 11:04:00,50.4,44.8,30.26,NE,49,3.0,11.0,81,0.00,,,0.00,Wunderground v.1.15,2013-04-23 15:04:00,
2013-04-23 11:09:00,50.7,45.7,30.26,NNE,29,0.0,11.0,83,0.00,,,0.00,Wunderground v.1.15,2013-04-23 15:09:00,
2013-04-23 11:14:00,51.0,45.7,30.26,NNW,334,4.0,6.0,82,0.00,,,0.00,Wunderground v.1.15,2013-04-23 15:14:00,
2013-04-23 11:19:00,51.2,45.6,30.26,ENE,59,4.0,11.0,81,0.00,,,0.00,Wunderground v.1.15,2013-04-23 15:19:00,
2013-04-23 11:24:00,51.2,45.6,30.26,NNW,337,3.0,9.0,81,0.00,,,0.00,Wunderground v.1.15,2013-04-23 15:24:00,
2013-04-23 11:29:00,51.5,45.9,30.26,North,360,5.0,9.0,81,0.00,,,0.00,Wunderground v.1.15,2013-04-23 15:29:00,
2013-04-23 11:34:00,51.7,46.1,30.26,NNW,330,7.0,7.0,81,0.00,,,0.00,Wunderground v.1.15,2013-04-23 15:34:00,
2013-04-23 11:39:00,52.0,46.3,30.25,NE,45,3.0,9.0,81,0.00,,,0.00,Wunderground v.1.15,2013-04-23 15:39:00,
2013-04-23 11:44:00,52.4,46.4,30.25,NE,46,3.0,8.0,80,0.00,,,0.00,Wunderground v.1.15,2013-04-23 15:44:00,
2013-04-23 11:49:00,52.6,46.3,30.25,NE,53,1.0,9.0,79,0.00,,,0.00,Wunderground v.1.15,2013-04-23 15:49:00,
2013-04-23 11:54:00,52.9,46.6,30.25,NNE,13,1.0,12.0,79,0.00,,,0.00,Wunderground v.1.15,2013-04-23 15:54:00,
2013-04-23 11:59:00,53.3,47.3,30.24,NE,34,4.0,12.0,80,0.00,,,0.00,Wunderground v.1.15,2013-04-23 15:59:00,
2013-04-23 12:04:00,53.3,46.6,30.25,ENE,57,3.0,11.0,78,0.00,,,0.00,Wunderground v.1.15,2013-04-23 16:04:00,
2013-04-23 12:09:00,53.5,47.1,30.25,NW,317,4.0,11.0,79,0.00,,,0.00,Wunderground v.1.15,2013-04-23 16:09:00,
2013-04-23 12:14:00,53.5,47.5,30.24,NW,323,4.0,7.0,80,0.00,,,0.00,Wunderground v.1.15,2013-04-23 16:14:00,
2013-04-23 12:19:00,53.5,47.5,30.24,NW,323,9.0,12.0,80,0.00,,,0.00,Wunderground v.1.15,2013-04-23 16:19:00,
2013-04-23 12:24:00,53.3,47.6,30.23,NNW,344,7.0,11.0,81,0.00,,,0.00,Wunderground v.1.15,2013-04-23 16:24:00,
2013-04-23 12:29:00,53.1,47.4,30.23,NNW,332,6.0,12.0,81,0.00,,,0.00,Wunderground v.1.15,2013-04-23 16:29:00,
2013-04-23 12:34:00,53.2,47.2,30.23,NW,313,7.0,11.0,80,0.00,,,0.00,Wunderground v.1.15,2013-04-23 16:34:00,
2013-04-23 12:39:00,52.7,46.7,30.23,NW,323,5.0,13.0,80,0.00,,,0.00,Wunderground v.1.15,2013-04-23 16:39:00,
2013-04-23 12:44:00,52.5,46.8,30.22,NW,321,7.0,13.0,81,0.00,,,0.00,Wunderground v.1.15,2013-04-23 16:44:00,
2013-04-23 12:49:00,52.5,46.8,30.22,North,360,5.0,13.0,81,0.00,,,0.00,Wunderground v.1.15,2013-04-23 16:49:00,
2013-04-23 12:54:00,52.7,47.0,30.22,NNW,344,6.0,11.0,81,0.00,,,0.00,Wunderground v.1.15,2013-04-23 16:54:00,
2013-04-23 12:59:00,52.6,46.9,30.21,NNW,344,5.0,12.0,81,0.00,,,0.00,Wunderground v.1.15,2013-04-23 16:59:00,
2013-04-23 13:04:00,52.8,47.5,30.21,NNW,328,9.0,13.0,82,0.00,,,0.00,Wunderground v.1.15,2013-04-23 17:04:00,
2013-04-23 13:09:00,52.7,47.4,30.21,NW,320,15.0,15.0,82,0.00,,,0.00,Wunderground v.1.15,2013-04-23 17:09:00,
2013-04-23 13:14:00,52.4,47.4,30.21,NNW,329,13.0,15.0,83,0.00,,,0.00,Wunderground v.1.15,2013-04-23 17:14:00,
2013-04-23 13:19:00,52.4,47.1,30.21,NNW,339,7.0,17.0,82,0.00,,,0.00,Wunderground v.1.15,2013-04-23 17:19:00,
2013-04-23 13:24:00,52.1,46.8,30.22,NNW,329,13.0,16.0,82,0.00,,,0.00,Wunderground v.1.15,2013-04-23 17:24:00,
2013-04-23 13:29:00,51.9,46.9,30.22,NW,321,9.0,16.0,83,0.00,,,0.00,Wunderground v.1.15,2013-04-23 17:29:00,
2013-04-23 13:34:00,52.0,47.0,30.22,NW,318,10.0,15.0,83,0.00,,,0.00,Wunderground v.1.15,2013-04-23 17:34:00,
2013-04-23 13:39:00,52.1,47.1,30.22,NNW,335,12.0,15.0,83,0.00,,,0.00,Wunderground v.1.15,2013-04-23 17:39:00,
2013-04-23 13:44:00,52.3,47.3,30.22,NW,322,7.0,15.0,83,0.00,,,0.00,Wunderground v.1.15,2013-04-23 17:44:00,
2013-04-23 13:49:00,52.7,47.7,30.22,NNW,329,14.0,16.0,83,0.00,,,0.00,Wunderground v.1.15,2013-04-23 17:49:00,
2013-04-23 13:54:00,52.6,47.9,30.22,NNW,336,15.0,17.0,84,0.00,,,0.00,Wunderground v.1.15,2013-04-23 17:54:00,
2013-04-23 13:59:00,52.5,48.1,30.22,NW,323,7.0,18.0,85,0.00,,,0.00,Wunderground v.1.15,2013-04-23 17:59:00,
2013-04-23 14:04:00,52.6,47.9,30.22,NNW,329,15.0,16.0,84,0.00,,,0.00,Wunderground v.1.15,2013-04-23 18:04:00,
2013-04-23 14:09:00,52.5,48.1,30.22,NW,326,14.0,16.0,85,0.00,,,0.00,Wunderground v.1.15,2013-04-23 18:09:00,
2013-04-23 14:14:00,52.4,47.7,30.22,NNW,342,13.0,17.0,84,0.00,,,0.00,Wunderground v.1.15,2013-04-23 18:14:00,
2013-04-23 14:19:00,52.4,48.0,30.21,NW,326,14.0,17.0,85,0.00,,,0.00,Wunderground v.1.15,2013-04-23 18:19:00,
2013-04-23 14:24:00,52.8,48.4,30.21,NNW,341,8.0,14.0,85,0.00,,,0.00,Wunderground v.1.15,2013-04-23 18:24:00,
2013-04-23 14:29:00,53.0,48.0,30.21,NW,323,11.0,15.0,83,0.00,,,0.00,Wunderground v.1.15,2013-04-23 18:29:00,
2013-04-23 14:34:00,53.4,48.4,30.21,NNW,335,5.0,12.0,83,0.00,,,0.00,Wunderground v.1.15,2013-04-23 18:34:00,
2013-04-23 14:39:00,54.0,48.3,30.21,NNW,330,4.0,12.0,81,0.00,,,0.00,Wunderground v.1.15,2013-04-23 18:39:00,
2013-04-23 14:44:00,54.6,48.9,30.21,NW,325,8.0,11.0,81,0.00,,,0.00,Wunderground v.1.15,2013-04-23 18:44:00,
2013-04-23 14:49:00,54.6,48.6,30.21,NNW,329,11.0,14.0,80,0.00,,,0.00,Wunderground v.1.15,2013-04-23 18:49:00,
2013-04-23 14:54:00,54.3,47.9,30.21,NNW,340,4.0,13.0,79,0.00,,,0.00,Wunderground v.1.15,2013-04-23 18:54:00,
2013-04-23 14:59:00,54.6,48.9,30.21,NNW,327,4.0,13.0,81,0.00,,,0.00,Wunderground v.1.15,2013-04-23 18:59:00,
2013-04-23 15:04:00,55.1,49.0,30.20,North,5,3.0,7.0,80,0.00,,,0.00,Wunderground v.1.15,2013-04-23 19:04:00,
2013-04-23 15:09:00,55.7,49.3,30.21,NE,38,5.0,10.0,79,0.00,,,0.00,Wunderground v.1.15,2013-04-23 19:09:00,
2013-04-23 15:14:00,56.1,49.3,30.21,NNW,332,9.0,13.0,78,0.00,,,0.00,Wunderground v.1.15,2013-04-23 19:14:00,
2013-04-23 15:20:00,56.6,49.8,30.20,North,360,3.0,4.0,78,0.00,,,0.00,Wunderground v.1.15,2013-04-23 19:20:00,
2013-04-23 15:25:00,56.5,49.0,30.21,NNW,329,9.0,11.0,76,0.00,,,0.00,Wunderground v.1.15,2013-04-23 19:25:00,
2013-04-23 15:30:00,56.3,49.2,30.21,NW,317,11.0,11.0,77,0.00,,,0.00,Wunderground v.1.15,2013-04-23 19:30:00,
2013-04-23 15:35:00,56.3,49.2,30.20,NNW,346,4.0,12.0,77,0.00,,,0.00,Wunderground v.1.15,2013-04-23 19:35:00,
2013-04-23 15:40:00,56.5,49.4,30.20,ENE,69,1.0,6.0,77,0.00,,,0.00,Wunderground v.1.15,2013-04-23 19:40:00,
2013-04-23 15:45:00,56.7,49.2,30.20,North,355,5.0,11.0,76,0.00,,,0.00,Wunderground v.1.15,2013-04-23 19:45:00,
2013-04-23 15:50:00,56.9,49.4,30.19,NE,34,3.0,5.0,76,0.00,,,0.00,Wunderground v.1.15,2013-04-23 19:50:00,
2013-04-23 15:55:00,57.4,49.9,30.18,NNE,29,3.0,6.0,76,0.00,,,0.00,Wunderground v.1.15,2013-04-23 19:55:00,
2013-04-23 16:00:00,57.9,50.0,30.18,North,350,2.0,5.0,75,0.00,,,0.00,Wunderground v.1.15,2013-04-23 20:00:00,
2013-04-23 16:05:00,58.4,50.5,30.18,NE,50,4.0,7.0,75,0.00,,,0.00,Wunderground v.1.15,2013-04-23 20:05:00,
2013-04-23 16:10:00,58.7,50.4,30.17,NE,52,3.0,6.0,74,0.00,,,0.00,Wunderground v.1.15,2013-04-23 20:10:00,
2013-04-23 16:15:00,58.7,50.1,30.17,East,82,5.0,10.0,73,0.00,,,0.00,Wunderground v.1.15,2013-04-23 20:15:00,
2013-04-23 16:20:00,59.0,50.0,30.16,NE,37,6.0,6.0,72,0.00,,,0.00,Wunderground v.1.15,2013-04-23 20:20:00,
2013-04-23 16:25:00,59.0,50.4,30.16,ENE,71,4.0,6.0,73,0.00,,,0.00,Wunderground v.1.15,2013-04-23 20:25:00,
2013-04-23 16:30:00,59.0,50.7,30.16,NE,48,4.0,5.0,74,0.00,,,0.00,Wunderground v.1.15,2013-04-23 20:30:00,
2013-04-23 16:35:00,59.1,50.1,30.15,NE,35,3.0,7.0,72,0.00,,,0.00,Wunderground v.1.15,2013-04-23 20:35:00,
2013-04-23 16:40:00,59.3,50.3,30.16,NNE,29,4.0,5.0,72,0.00,,,0.00,Wunderground v.1.15,2013-04-23 20:40:00,
2013-04-23 16:45:00,59.3,49.9,30.15,NNE,24,3.0,8.0,71,0.00,,,0.00,Wunderground v.1.15,2013-04-23 20:45:00,
2013-04-23 16:50:00,59.4,50.0,30.15,ENE,68,5.0,5.0,71,0.00,,,0.00,Wunderground v.1.15,2013-04-23 20:50:00,
2013-04-23 16:55:00,59.4,50.0,30.15,ENE,57,4.0,7.0,71,0.00,,,0.00,Wunderground v.1.15,2013-04-23 20:55:00,
2013-04-23 17:00:00,59.5,50.5,30.15,NNE,32,2.0,5.0,72,0.00,,,0.00,Wunderground v.1.15,2013-04-23 21:00:00,
2013-04-23 17:05:00,59.4,50.0,30.14,NE,45,1.0,9.0,71,0.00,,,0.00,Wunderground v.1.15,2013-04-23 21:05:00,
2013-04-23 17:10:00,59.3,49.9,30.14,NE,38,4.0,4.0,71,0.00,,,0.00,Wunderground v.1.15,2013-04-23 21:10:00,
2013-04-23 17:15:00,59.4,49.6,30.14,NE,55,1.0,6.0,70,0.00,,,0.00,Wunderground v.1.15,2013-04-23 21:15:00,
2013-04-23 17:20:00,59.4,49.2,30.14,NNE,28,3.0,6.0,69,0.00,,,0.00,Wunderground v.1.15,2013-04-23 21:20:00,
2013-04-23 17:25:00,59.3,49.1,30.14,NE,36,5.0,7.0,69,0.00,,,0.00,Wunderground v.1.15,2013-04-23 21:25:00,
2013-04-23 17:30:00,59.3,48.7,30.14,ENE,57,3.0,6.0,68,0.00,,,0.00,Wunderground v.1.15,2013-04-23 21:30:00,
2013-04-23 17:35:00,59.3,49.1,30.13,NE,36,3.0,6.0,69,0.00,,,0.00,Wunderground v.1.15,2013-04-23 21:35:00,
2013-04-23 17:40:00,59.5,48.9,30.13,NE,53,4.0,5.0,68,0.00,,,0.00,Wunderground v.1.15,2013-04-23 21:40:00,
2013-04-23 17:45:00,59.6,48.6,30.13,NE,38,2.0,7.0,67,0.00,,,0.00,Wunderground v.1.15,2013-04-23 21:45:00,
2013-04-23 17:50:00,59.5,48.9,30.13,NE,52,3.0,4.0,68,0.00,,,0.00,Wunderground v.1.15,2013-04-23 21:50:00,
2013-04-23 17:56:00,59.4,49.2,30.13,ENE,69,0.0,7.0,69,0.00,,,0.00,Wunderground v.1.15,2013-04-23 21:56:00,
2013-04-23 18:01:00,59.3,49.1,30.13,NE,43,4.0,5.0,69,0.00,,,0.00,Wunderground v.1.15,2013-04-23 22:01:00,
2013-04-23 18:06:00,59.2,49.0,30.13,NE,41,3.0,5.0,69,0.00,,,0.00,Wunderground v.1.15,2013-04-23 22:06:00,
2013-04-23 18:11:00,59.2,49.4,30.13,ENE,67,2.0,4.0,70,0.00,,,0.00,Wunderground v.1.15,2013-04-23 22:11:00,
2013-04-23 18:16:00,59.1,49.3,30.13,NNE,26,2.0,7.0,70,0.00,,,0.00,Wunderground v.1.15,2013-04-23 22:16:00,
2013-04-23 18:21:00,59.0,49.6,30.13,NNE,32,6.0,6.0,71,0.00,,,0.00,Wunderground v.1.15,2013-04-23 22:21:00,
2013-04-23 18:26:00,59.0,50.0,30.13,NNE,33,3.0,6.0,72,0.00,,,0.00,Wunderground v.1.15,2013-04-23 22:26:00,
2013-04-23 18:31:00,59.0,50.0,30.12,NE,44,4.0,4.0,72,0.00,,,0.00,Wunderground v.1.15,2013-04-23 22:31:00,
2013-04-23 18:36:00,59.0,50.0,30.12,NE,44,4.0,5.0,72,0.00,,,0.00,Wunderground v.1.15,2013-04-23 22:36:00,
2013-04-23 18:41:00,58.9,49.9,30.12,NE,47,0.0,3.0,72,0.00,,,0.00,Wunderground v.1.15,2013-04-23 22:41:00,
2013-04-23 18:46:00,59.0,50.4,30.13,NE,46,2.0,3.0,73,0.00,,,0.00,Wunderground v.1.15,2013-04-23 22:46:00,
2013-04-23 18:51:00,59.0,50.4,30.12,NE,46,0.0,1.0,73,0.00,,,0.00,Wunderground v.1.15,2013-04-23 22:51:00,
2013-04-23 18:56:00,59.0,50.4,30.12,NE,47,2.0,2.0,73,0.00,,,0.00,Wunderground v.1.15,2013-04-23 22:56:00,
2013-04-23 19:01:00,59.0,50.4,30.13,NE,47,1.0,2.0,73,0.00,,,0.00,Wunderground v.1.15,2013-04-23 23:01:00,
2013-04-23 19:06:00,59.0,50.7,30.12,NE,47,0.0,3.0,74,0.00,,,0.00,Wunderground v.1.15,2013-04-23 23:06:00,
2013-04-23 19:11:00,58.8,50.5,30.12,NE,46,0.0,1.0,74,0.00,,,0.00,Wunderground v.1.15,2013-04-23 23:11:00,
2013-04-23 19:16:00,58.7,50.4,30.12,NE,47,0.0,1.0,74,0.00,,,0.00,Wunderground v.1.15,2013-04-23 23:16:00,
2013-04-23 19:21:00,58.6,50.3,30.12,NE,47,0.0,1.0,74,0.00,,,0.00,Wunderground v.1.15,2013-04-23 23:21:00,
2013-04-23 19:26:00,58.5,50.2,30.12,NE,47,0.0,1.0,74,0.00,,,0.00,Wunderground v.1.15,2013-04-23 23:26:00,
2013-04-23 19:31:00,58.2,50.0,30.12,NE,46,0.0,0.0,74,0.00,,,0.00,Wunderground v.1.15,2013-04-23 23:31:00,
2013-04-23 19:36:00,58.0,49.8,30.13,NE,47,0.0,1.0,74,0.00,,,0.00,Wunderground v.1.15,2013-04-23 23:36:00,
2013-04-23 19:41:00,57.6,49.7,30.13,NE,47,0.0,0.0,75,0.00,,,0.00,Wunderground v.1.15,2013-04-23 23:41:00,
2013-04-23 19:46:00,57.2,49.3,30.12,NE,46,0.0,0.0,75,0.00,,,0.00,Wunderground v.1.15,2013-04-23 23:46:00,
2013-04-23 19:51:00,56.8,49.3,30.13,NE,46,0.0,0.0,76,0.00,,,0.00,Wunderground v.1.15,2013-04-23 23:51:00,
2013-04-23 19:56:00,56.4,48.9,30.13,NE,47,0.0,1.0,76,0.00,,,0.00,Wunderground v.1.15,2013-04-23 23:56:00,
2013-04-23 20:01:00,56.0,48.5,30.13,NE,47,0.0,0.0,76,0.00,,,0.00,Wunderground v.1.15,2013-04-24 00:01:00,
2013-04-23 20:06:00,55.6,48.5,30.13,NE,47,0.0,0.0,77,0.00,,,0.00,Wunderground v.1.15,2013-04-24 00:06:00,
2013-04-23 20:11:00,55.2,48.5,30.13,NE,46,0.0,0.0,78,0.00,,,0.00,Wunderground v.1.15,2013-04-24 00:11:00,
2013-04-23 20:16:00,54.8,48.4,30.13,NE,47,0.0,0.0,79,0.00,,,0.00,Wunderground v.1.15,2013-04-24 00:16:00,
2013-04-23 20:21:00,54.3,48.3,30.13,NE,46,0.0,0.0,80,0.00,,,0.00,Wunderground v.1.15,2013-04-24 00:21:00,
2013-04-23 20:26:00,53.9,48.2,30.13,NE,47,0.0,0.0,81,0.00,,,0.00,Wunderground v.1.15,2013-04-24 00:26:00,
2013-04-23 20:31:00,53.5,47.8,30.13,NE,47,0.0,0.0,81,0.00,,,0.00,Wunderground v.1.15,2013-04-24 00:31:00,
2013-04-23 20:37:00,53.1,47.7,30.13,NE,47,0.0,0.0,82,0.00,,,0.00,Wunderground v.1.15,2013-04-24 00:37:00,
2013-04-23 20:42:00,52.9,47.9,30.13,NE,47,0.0,0.0,83,0.00,,,0.00,Wunderground v.1.15,2013-04-24 00:42:00,
2013-04-23 20:47:00,52.7,47.7,30.13,NE,47,0.0,1.0,83,0.00,,,0.00,Wunderground v.1.15,2013-04-24 00:47:00,
2013-04-23 20:52:00,52.5,47.8,30.13,NE,47,0.0,0.0,84,0.00,,,0.00,Wunderground v.1.15,2013-04-24 00:52:00,
2013-04-23 20:57:00,52.4,47.7,30.13,NE,47,0.0,0.0,84,0.00,,,0.00,Wunderground v.1.15,2013-04-24 00:57:00,
2013-04-23 21:02:00,52.3,47.6,30.13,NE,47,0.0,0.0,84,0.00,,,0.00,Wunderground v.1.15,2013-04-24 01:02:00,
2013-04-23 21:07:00,52.2,47.8,30.13,NE,46,0.0,0.0,85,0.00,,,0.00,Wunderground v.1.15,2013-04-24 01:07:00,
2013-04-23 21:12:00,52.0,47.6,30.14,NE,47,0.0,0.0,85,0.00,,,0.00,Wunderground v.1.15,2013-04-24 01:12:00,
2013-04-23 21:17:00,51.9,47.5,30.13,NE,46,0.0,0.0,85,0.00,,,0.00,Wunderground v.1.15,2013-04-24 01:17:00,
2013-04-23 21:22:00,51.8,47.7,30.13,NE,47,0.0,0.0,86,0.00,,,0.00,Wunderground v.1.15,2013-04-24 01:22:00,
2013-04-23 21:27:00,51.7,47.6,30.14,NE,47,0.0,0.0,86,0.00,,,0.00,Wunderground v.1.15,2013-04-24 01:27:00,
2013-04-23 21:32:00,51.5,47.5,30.14,NE,46,0.0,0.0,86,0.00,,,0.00,Wunderground v.1.15,2013-04-24 01:32:00,
2013-04-23 21:38:00,51.4,47.7,30.14,NE,47,0.0,0.0,87,0.00,,,0.00,Wunderground v.1.15,2013-04-24 01:38:00,
2013-04-23 21:43:00,51.3,47.6,30.14,NE,46,0.0,0.0,87,0.00,,,0.00,Wunderground v.1.15,2013-04-24 01:43:00,
2013-04-23 21:48:00,51.2,47.5,30.14,NE,46,0.0,1.0,87,0.00,,,0.00,Wunderground v.1.15,2013-04-24 01:48:00,
2013-04-23 21:53:00,51.0,47.6,30.14,NE,47,0.0,1.0,88,0.00,,,0.00,Wunderground v.1.15,2013-04-24 01:53:00,
2013-04-23 21:58:00,50.9,47.5,30.14,NE,46,0.0,1.0,88,0.00,,,0.00,Wunderground v.1.15,2013-04-24 01:58:00,
2013-04-23 22:03:00,50.9,47.8,30.14,NE,46,0.0,0.0,89,0.00,,,0.00,Wunderground v.1.15,2013-04-24 02:03:00,
2013-04-23 22:08:00,50.8,47.7,30.14,NE,46,0.0,0.0,89,0.00,,,0.00,Wunderground v.1.15,2013-04-24 02:08:00,
2013-04-23 22:14:00,50.7,47.9,30.14,NE,47,0.0,0.0,90,0.00,,,0.00,Wunderground v.1.15,2013-04-24 02:14:00,
2013-04-23 22:19:00,50.6,47.8,30.14,NE,47,0.0,0.0,90,0.00,,,0.00,Wunderground v.1.15,2013-04-24 02:19:00,
2013-04-23 22:24:00,50.5,47.7,30.14,NE,46,0.0,0.0,90,0.00,,,0.00,Wunderground v.1.15,2013-04-24 02:24:00,
2013-04-23 22:30:00,50.4,47.6,30.13,NE,47,0.0,0.0,90,0.00,,,0.00,Wunderground v.1.15,2013-04-24 02:30:00,
2013-04-23 22:35:00,50.3,47.5,30.13,NE,47,0.0,0.0,90,0.00,,,0.00,Wunderground v.1.15,2013-04-24 02:35:00,
2013-04-23 22:41:00,50.2,47.7,30.13,NE,46,1.0,1.0,91,0.00,,,0.00,Wunderground v.1.15,2013-04-24 02:41:00,
2013-04-23 22:46:00,50.1,47.6,30.13,NE,47,0.0,2.0,91,0.00,,,0.00,Wunderground v.1.15,2013-04-24 02:46:00,
2013-04-23 22:51:00,50.3,48.1,30.13,East,87,1.0,3.0,92,0.00,,,0.00,Wunderground v.1.15,2013-04-24 02:51:00,
2013-04-23 22:57:00,50.3,48.1,30.13,East,87,1.0,3.0,92,0.00,,,0.00,Wunderground v.1.15,2013-04-24 02:57:00,
2013-04-23 23:02:00,50.3,48.1,30.13,East,87,3.0,3.0,92,0.00,,,0.00,Wunderground v.1.15,2013-04-24 03:02:00,
2013-04-23 23:07:00,50.4,48.2,30.12,East,88,1.0,3.0,92,0.00,,,0.00,Wunderground v.1.15,2013-04-24 03:07:00,
2013-04-23 23:12:00,50.3,48.1,30.12,ESE,107,2.0,3.0,92,0.00,,,0.00,Wunderground v.1.15,2013-04-24 03:12:00,
2013-04-23 23:17:00,50.3,48.1,30.12,ESE,107,1.0,3.0,92,0.00,,,0.00,Wunderground v.1.15,2013-04-24 03:17:00,
2013-04-23 23:23:00,50.2,48.0,30.12,ESE,121,2.0,5.0,92,0.00,,,0.00,Wunderground v.1.15,2013-04-24 03:23:00,
2013-04-23 23:28:00,50.1,47.9,30.12,ESE,121,0.0,5.0,92,0.00,,,0.00,Wunderground v.1.15,2013-04-24 03:28:00,
2013-04-23 23:33:00,50.0,47.8,30.12,ESE,121,0.0,1.0,92,0.00,,,0.00,Wunderground v.1.15,2013-04-24 03:33:00,
2013-04-23 23:38:00,49.8,47.6,30.12,ESE,121,0.0,4.0,92,0.00,,,0.00,Wunderground v.1.15,2013-04-24 03:38:00,
2013-04-23 23:43:00,49.7,47.8,30.13,ESE,121,0.0,1.0,93,0.00,,,0.00,Wunderground v.1.15,2013-04-24 03:43:00,
2013-04-23 23:48:00,49.7,47.8,30.13,ESE,121,1.0,3.0,93,0.00,,,0.00,Wunderground v.1.15,2013-04-24 03:48:00,
2013-04-23 23:54:00,49.6,47.7,30.13,ESE,121,0.0,2.0,93,0.00,,,0.00,Wunderground v.1.15,2013-04-24 03:54:00,
2013-04-23 23:59:00,49.5,47.6,30.12,ESE,120,2.0,2.0,93,0.00,,,0.00,Wunderground v.1.15,2013-04-24 03:59:00,